Observations for Trim Market St
| Time | AQI | Temp °C | Hum % | Pres Pa | CO μg/m³ | H₂S μg/m³ | NO μg/m³ | NO₂ μg/m³ | O₃ μg/m³ | SO₂ μg/m³ | PM1 μg/m³ | PM2.5 μg/m³ | PM10 μg/m³ |
|---|---|---|---|---|---|---|---|---|---|---|---|---|---|
| Wednesday 26 August 2026 | |||||||||||||
| 04:19 | 2 | 16.8 | 85 | 2,147,483,647 | 0.29 | 0 | 1.15 | 15.07 | 35.4 | 0 | 5.7 | 6.27 | 10.21 |
| 04:16 | 2 | 16.7 | 85 | 2,147,483,647 | 0.29 | 0 | 0.99 | 14.29 | 33.24 | 0 | 6.41 | 6.97 | 11.81 |
| 04:10 | 2 | 16.7 | 85 | 2,147,483,647 | 0.3 | 0 | 1.45 | 15.23 | 33.28 | 0 | 4.28 | 5.12 | 9.68 |
| 04:06 | 2 | 16.7 | 85 | 2,147,483,647 | 0.3 | 0 | 1.43 | 16.62 | 29.76 | 0 | 4.99 | 5.12 | 9.14 |
| 04:05 | 2 | 16.7 | 85 | 2,147,483,647 | 0.3 | 0 | 1.43 | 14.18 | 33.2 | 0 | 5.7 | 7.44 | 12.36 |
| 04:04 | 2 | 16.7 | 85 | 2,147,483,647 | 0.3 | 0 | 1.42 | 19.25 | 33.78 | 0 | 4.99 | 5.58 | 9.14 |
| 04:03 | 2 | 16.7 | 85 | 2,147,483,647 | 0.29 | 0 | 1.43 | 14.39 | 34.34 | 0 | 3.56 | 5.12 | 9.14 |
| 04:02 | 2 | 16.7 | 85 | 2,147,483,647 | 0.3 | 0 | 1.58 | 15.07 | 30.9 | 0 | 5.7 | 6.98 | 10.75 |
| 04:01 | 2 | 16.7 | 85 | 2,147,483,647 | 0.29 | 0 | 1.64 | 14.39 | 32.93 | 0 | 5.7 | 6.27 | 9.14 |
| 04:00 | 2 | 16.7 | 85 | 2,147,483,647 | 0.31 | 0 | 1.56 | 16.32 | 34.71 | 0 | 4.28 | 5.58 | 9.14 |
| 03:59 | 2 | 16.7 | 85 | 2,147,483,647 | 0.29 | 0 | 1.33 | 18.9 | 35.33 | 0 | 4.28 | 6.52 | 10.75 |
| 03:58 | 2 | 16.7 | 85 | 2,147,483,647 | 0.3 | 0 | 1.32 | 16.63 | 31.07 | 0 | 5.7 | 7.9 | 13.96 |
| 03:57 | 2 | 16.7 | 85 | 2,147,483,647 | 0.3 | 0 | 1.33 | 14.91 | 31.93 | 0 | 5.7 | 6.27 | 9.68 |
| 03:56 | 2 | 16.7 | 85 | 2,147,483,647 | 0.29 | 0 | 1.25 | 14.5 | 34.09 | 0 | 5.7 | 6.98 | 10.75 |
| 03:55 | 2 | 16.7 | 85 | 2,147,483,647 | 0.3 | 0 | 1.17 | 16.31 | 33.83 | 0 | 4.28 | 6.52 | 12.36 |
| 03:54 | 2 | 16.7 | 85 | 2,147,483,647 | 0.29 | 0 | 1.28 | 15.07 | 31.4 | 0 | 3.56 | 4.66 | 8.07 |
| 03:53 | 2 | 16.7 | 85 | 2,147,483,647 | 0.29 | 0 | 1.13 | 14.51 | 40.8 | 0 | 5.7 | 6.98 | 10.75 |
| 03:49 | 2 | 16.7 | 85 | 2,147,483,647 | 0.29 | 0 | 1.36 | 14.64 | 31.68 | 0 | 6.41 | 6.52 | 11.82 |
| 03:42 | 2 | 16.7 | 85 | 2,147,483,647 | 0.28 | 0 | 1.6 | 14.41 | 35.48 | 0 | 4.99 | 6.05 | 9.68 |
| 03:41 | 2 | 16.7 | 85 | 2,147,483,647 | 0.29 | 0 | 1.57 | 15.27 | 36.49 | 0 | 4.28 | 6.51 | 11.28 |